Date String (YYYY-MM-DD hh:mm:ss) UTC,Instrument flags,Ambient pressure (hPa),Sample flow (lpm),Bypass flow (lpm),Sample temperature (°C),Ambient temperature (°C),ASC tube jacket temperature (°C),LED temperature (°C),Box temperature (°C),Sample RH (%),Span deviation,Mass concentration (μg/m³),Mass concentration (μg/m³),Mass concentration (μg/m³)
DateTimeUTC,F1_M11,P_M11,Q1_M11,Q2_M11,T1_M11,T2_M11,T3_M11,T4_M11,T5_M11,U1_M11,ZSPAN_M11,X0_M11,X2_M11,X1_M11
2022-12-02 05:00:00,,0812.1,4.99,0.00,24.7,23.3,00.0,33.6,26.6,09.1,0000.0,0002.32,0000.62,0000.31
2022-12-02 05:01:00,,0812.0,5.00,0.00,24.7,23.4,00.0,33.6,26.6,09.0,0000.0,0002.28,0000.62,0000.32
2022-12-02 05:02:00,,0811.8,5.01,0.00,24.7,23.4,00.0,33.6,26.6,09.1,0000.0,0002.18,0000.60,0000.32
2022-12-02 05:03:00,,0811.9,5.00,0.00,24.7,23.4,00.0,33.6,26.6,09.0,0000.0,0003.05,0000.60,0000.31
2022-12-02 05:04:00,,0812.0,5.00,0.00,24.7,23.4,00.0,33.6,26.6,08.9,0000.0,0003.87,0000.63,0000.32
2022-12-02 05:05:00,,0812.1,5.02,0.00,24.7,23.4,00.0,33.6,26.6,09.0,0000.0,0003.86,0000.63,0000.32
2022-12-02 05:06:00,,0812.1,5.00,0.00,24.7,23.4,00.0,33.6,26.7,08.8,0000.0,0003.84,0000.61,0000.32
2022-12-02 05:07:00,,0812.0,5.00,0.00,24.7,23.4,00.0,33.6,26.6,09.3,0000.0,0003.82,0000.60,0000.33
2022-12-02 05:08:00,,0811.8,5.00,0.00,24.7,23.4,00.0,33.6,26.6,09.4,0000.0,0003.74,0000.60,0000.33
2022-12-02 05:09:00,,0811.6,4.99,0.00,24.7,23.4,00.0,33.6,26.6,09.5,0000.0,0003.70,0000.59,0000.33
2022-12-02 05:10:00,,0811.5,4.99,0.00,24.7,23.3,00.0,33.6,26.6,09.7,0000.0,0003.52,0000.55,0000.33
2022-12-02 05:11:00,,0811.5,5.00,0.00,24.7,23.3,00.0,33.6,26.6,09.4,0000.0,0002.48,0000.55,0000.32
2022-12-02 05:12:00,,0811.7,5.00,0.00,24.7,23.2,00.0,33.6,26.5,09.4,0000.0,0002.45,0000.52,0000.32
2022-12-02 05:13:00,,0811.7,5.02,0.00,24.7,23.1,00.0,33.6,26.5,09.3,0000.0,0002.45,0000.52,0000.32
2022-12-02 05:14:00,,0811.8,4.98,0.00,24.7,23.0,00.0,33.6,26.5,09.3,0000.0,0001.69,0000.50,0000.32
2022-12-02 05:15:00,,0811.9,5.00,0.00,24.6,22.8,00.0,33.6,26.4,09.4,0000.0,0000.80,0000.49,0000.33
2022-12-02 05:16:00,,0811.7,5.01,0.00,24.6,22.7,00.0,33.6,26.4,09.4,0000.0,0000.93,0000.53,0000.33
2022-12-02 05:17:00,,0812.0,5.00,0.00,24.5,22.6,00.0,33.6,26.3,09.4,0000.0,0001.19,0000.55,0000.33
2022-12-02 05:18:00,,0812.2,4.99,0.00,24.5,22.7,00.0,33.6,26.3,09.4,0000.0,0001.23,0000.57,0000.34
2022-12-02 05:19:00,,0812.2,5.00,0.00,24.5,22.8,00.0,33.5,26.4,09.5,0000.0,0001.29,0000.59,0000.34
2022-12-02 05:20:00,,0812.3,5.00,0.00,24.5,22.9,00.0,33.5,26.4,09.7,0000.0,0001.33,0000.60,0000.35
2022-12-02 05:21:00,,0812.4,5.00,0.00,24.5,22.9,00.0,33.5,26.4,09.8,0000.0,0001.39,0000.62,0000.37
2022-12-02 05:22:00,,0812.5,5.00,0.00,24.5,22.9,00.0,33.5,26.4,09.9,0000.0,0001.34,0000.61,0000.38
2022-12-02 05:23:00,,0812.5,5.00,0.00,24.5,22.9,00.0,33.5,26.3,09.9,0000.0,0001.40,0000.62,0000.38
2022-12-02 05:24:00,,0812.4,4.99,0.00,24.5,22.9,00.0,33.5,26.4,10.2,0000.0,0001.43,0000.64,0000.38
2022-12-02 05:25:00,,0812.3,5.00,0.00,24.5,22.9,00.0,33.5,26.4,10.3,0000.0,0001.41,0000.62,0000.38
2022-12-02 05:26:00,,0812.2,5.00,0.00,24.5,23.0,00.0,33.5,26.3,10.5,0000.0,0001.39,0000.61,0000.38
2022-12-02 05:27:00,,0812.3,5.00,0.00,24.5,23.0,00.0,33.5,26.4,10.3,0000.0,0001.25,0000.59,0000.39
2022-12-02 05:28:00,,0812.2,5.01,0.00,24.5,23.0,00.0,33.5,26.4,10.4,0000.0,0001.03,0000.59,0000.40
2022-12-02 05:29:00,,0812.2,5.00,0.00,24.5,23.1,00.0,33.4,26.4,10.4,0000.0,0001.07,0000.61,0000.40
2022-12-02 05:30:00,,0812.3,4.99,0.00,24.5,23.1,00.0,33.4,26.4,10.1,0000.0,0001.08,0000.61,0000.41
2022-12-02 05:31:00,,0812.4,5.00,0.00,24.5,23.1,00.0,33.4,26.4,10.0,0000.0,0001.16,0000.64,0000.41
2022-12-02 05:32:00,,0812.1,5.00,0.00,24.5,23.1,00.0,33.4,26.4,10.0,0000.0,0001.14,0000.62,0000.39
2022-12-02 05:33:00,,0811.9,5.00,0.00,24.5,22.9,00.0,33.5,26.3,09.9,0000.0,0001.20,0000.64,0000.39
2022-12-02 05:34:00,,0812.2,5.01,0.00,24.4,22.8,00.0,33.4,26.3,10.0,0000.0,0001.32,0000.69,0000.39
2022-12-02 05:35:00,,0812.3,5.00,0.00,24.4,22.7,00.0,33.4,26.3,10.0,0000.0,0001.43,0000.70,0000.40
2022-12-02 05:36:00,,0812.2,4.99,0.00,24.4,22.7,00.0,33.4,26.3,09.9,0000.0,0001.52,0000.71,0000.39
2022-12-02 05:37:00,,0811.9,4.99,0.00,24.4,22.7,00.0,33.4,26.2,10.3,0000.0,0001.54,0000.71,0000.39
2022-12-02 05:38:00,,0811.8,5.00,0.00,24.4,22.7,00.0,33.4,26.2,10.4,0000.0,0001.61,0000.71,0000.38
2022-12-02 05:39:00,,0811.9,5.00,0.00,24.4,22.6,00.0,33.4,26.2,10.3,0000.0,0001.65,0000.70,0000.37
2022-12-02 05:40:00,,0812.0,5.00,0.00,24.3,22.6,00.0,33.4,26.2,10.6,0000.0,0001.62,0000.69,0000.37
2022-12-02 05:41:00,,0812.1,5.01,0.00,24.3,22.6,00.0,33.4,26.1,10.4,0000.0,0001.74,0000.71,0000.36
2022-12-02 05:42:00,,0812.1,5.01,0.00,24.3,22.6,00.0,33.4,26.1,10.2,0000.0,0001.75,0000.67,0000.35
2022-12-02 05:43:00,,0812.2,5.00,0.00,24.3,22.6,00.0,33.3,26.1,10.5,0000.0,0001.96,0000.68,0000.35
2022-12-02 05:44:00,,0812.1,4.99,0.00,24.3,22.7,00.0,33.3,26.2,10.7,0000.0,0001.94,0000.68,0000.35
2022-12-02 05:45:00,,0812.0,5.01,0.00,24.3,22.7,00.0,33.3,26.1,10.8,0000.0,0001.78,0000.63,0000.36
2022-12-02 05:46:00,,0812.1,5.00,0.00,24.3,22.7,00.0,33.3,26.1,10.7,0000.0,0001.72,0000.64,0000.36
2022-12-02 05:47:00,,0812.5,4.99,0.00,24.3,22.7,00.0,33.3,26.1,10.8,0000.0,0001.66,0000.66,0000.37
2022-12-02 05:48:00,,0812.4,5.00,0.00,24.3,22.7,00.0,33.3,26.1,11.0,0000.0,0001.71,0000.69,0000.37
2022-12-02 05:49:00,,0811.8,5.01,0.00,24.3,22.8,00.0,33.3,26.2,10.8,0000.0,0001.64,0000.67,0000.37
2022-12-02 05:50:00,,0812.0,4.99,0.00,24.3,22.8,00.0,33.3,26.1,10.5,0000.0,0001.54,0000.66,0000.37
2022-12-02 05:51:00,,0812.1,5.00,0.00,24.3,22.8,00.0,33.3,26.1,10.3,0000.0,0001.72,0000.66,0000.37
2022-12-02 05:52:00,,0812.3,4.99,0.00,24.3,22.8,00.0,33.3,26.1,10.3,0000.0,0001.70,0000.65,0000.36
2022-12-02 05:53:00,,0812.5,5.00,0.00,24.3,22.9,00.0,33.3,26.2,10.4,0000.0,0001.59,0000.66,0000.36
2022-12-02 05:54:00,,0812.1,4.99,0.00,24.3,22.9,00.0,33.3,26.2,10.6,0000.0,0001.30,0000.64,0000.36
2022-12-02 05:55:00,,0812.1,5.00,0.00,24.3,22.8,00.0,33.3,26.2,10.4,0000.0,0001.25,0000.62,0000.36
2022-12-02 05:56:00,,0812.1,5.01,0.00,24.3,22.7,00.0,33.3,26.1,10.4,0000.0,0001.28,0000.62,0000.36
2022-12-02 05:57:00,,0812.1,5.00,0.00,24.3,22.7,00.0,33.2,26.1,10.7,0000.0,0001.36,0000.62,0000.35
2022-12-02 05:58:00,,0812.5,4.99,0.00,24.3,22.7,00.0,33.2,26.1,10.7,0000.0,0001.51,0000.62,0000.35
2022-12-02 05:59:00,,0812.2,5.01,0.00,24.3,22.8,00.0,33.2,26.1,10.7,0000.0,0001.47,0000.61,0000.35
